Погода в Октябрьском

Россия / Волгоградская область     49°38′15″N   44°33′23″E
темп.,
°C
ветер,
м/с
пор.,
м/с
влажн.,
%
обл.,
%
осадки,
мм/ч
давл.,
гПа
погр.,
м
10 августа, ср
ср1000:00+26всв343119 0.0 101772
03:00+23всв23364 0.0 101718
06:00+23всв34390 0.0 101785
09:00+31в44275 0.0 1017860
12:00+34в43192 0.0 10163197
15:00+35всв44175 0.0 10143745
18:00+33св662039 0.0 10141032
21:00+29всв5102853 0.0 1015272
11 августа, чт
чт1100:00+26в2834100 0.0 1015174
03:00+25св4738100 0.0 1015166
06:00+26всв5103820 0.0 1015216
09:00+32в6727100 0.1 1015779
12:00+35в5721100 0.0 10153156
15:00+34всв882463 0.0 10141140
18:00+30всв91334100 0.0 1014806
21:00+25в7154693 0.0 1015360
12 августа, пт
пт1200:00+25св51144100 0.1 1017369
03:00+23в5135444 0.1 1017250
06:00+23всв5115891 0.0 1018309
09:00+29в783895 0.0 1018668
12:00+35в662499 0.0 10171879
15:00+36всв7621100 0.0 10163365
18:00+33св892689 0.0 10161141
21:00+29всв7143590 0.0 1017369
13 августа, сб
сб1300:00+27всв7154396 0.0 1017404
03:00+25всв61346100 0.0 1018416
06:00+24всв7134786 0.0 1018334
09:00+30в8103322 0.0 1018578
12:00+35в7723100 0.0 10171851
15:00+36всв872196 0.0 10153493
18:00+33св81025100 0.0 10151187
21:00+28всв91528100 0.1 1016505
14 августа, вс
вс1400:00+27всв61227100 0.0 1017383
03:00+25всв61227100 0.0 1016315
06:00+23всв6123294 0.0 1017327
09:00+28в7923100 0.0 1017690
12:00+33в771899 0.0 10151812
15:00+35в661781 0.0 10142366
18:00+32всв671899 0.0 10141382
21:00+25св511295 0.0 1015171